軌道要素
Epoch 2015 Aug. 6.0 TT = JDT 2457240.5
T 2015 Aug. 16.78998 TT Bell
q 1.2762096 (2000.0) P Q
n 0.19286567 Peri. 334.78886 -0.32699729 +0.92232169
a 2.9668762 Node 275.56753 -0.82821370 -0.38462330
e 0.5698474 Incl. 11.93943 -0.45512068 +0.03725076
P 5.11
From 93 observations 2005 July 28-2020 Feb. 1, mean residual 0".6.
|